Find Starlink 5185

NORAD ID: 54100 Int'l Des: 2022-136 Owner: SPXS Country: US Constellation: starlink operational
LEOCIRCULAR

リアルタイム位置

3D地球を読み込み中...

Starlink 5185について

説明を読み込み中...

次回通過

Passes for default location (London). Set your location on the main map for personalized predictions.

高度履歴

Loading altitude history...

軌道要素

1 54100U 22136BB 26125.03021499 -.00000179 00000-0 68418-5 0 9998
2 54100 53.2165 80.9078 0001399 82.8580 277.2571 15.08832750195497
Epoch: May 5, 2026 • Age: 10 hours

現在のステータス

高度 540.3 km
速度 7.60 km/s
衛星直下点 26.04°N, 80.94°E
打ち上げ日 Oct 20, 2022
運用期間 3.5 years
タイプ internet

技術仕様

分類 Payload
質量 305.00 kg
乾燥質量 290.00 kg
総質量 305.00 kg
長さ 0.20 m
直径 2.80 m
スパン 9.00 m
形状 Box + pan
製造者 SPXS
バスタイプ Starlink
フェーズステータス In Orbit
所有者/国 SPXS/US

Most Searched